Monterey, CA

11:03 PM PST on December 03, 2016 (GMT -0800)
Monterey Peninsula

Weather History for KMRY - October, 2012

Change the Weather History Date:

Friday, October 12, 2012

  Actual Average Record
Temperature  
Mean Temperature 59 °F 59 °F  
Max Temperature 66 °F 68 °F 88 °F (2004)
Min Temperature 52 °F 51 °F 41 °F (2008)
Degree Days  
Heating Degree Days 6    
Month to date heating degree days 41  
Since 1 July heating degree days 570  
Cooling Degree Days 0    
Month to date cooling degree days 18  
Year to date cooling degree days 18  
Growing Degree Days 8 (Base 50)    
Moisture  
Dew Point 52 °F    
Average Humidity 78    
Maximum Humidity 93    
Minimum Humidity 63    
Precipitation  
Precipitation 0.00 in - 0.30 in (1948)
Month to date precipitation 0.30  
Year to date precipitation 8.02  
Since 1 July precipitation 0.37  
Sea Level Pressure  
Sea Level Pressure 30.14 in    
Wind  
Wind Speed 3 mph (SSW)    
Max Wind Speed 12 mph    
Max Gust Speed 17 mph    
Visibility 10 miles    
Events      
T = Trace of Precipitation, MM = Missing Value Source: NWS Daily Summary

Daily Weather History Graph

Daily Weather History Graph

Search for Another Location

Airport or City:

Trip Planner

Search our weather history database for the weather conditions in past years. The results will help you decide how hot, cold, wet, or windy it might be!

Date:

Astronomy

Oct. 12, 2012 Rise Set
Actual Time 7:12 AM PDT 6:34 PM PDT
Civil Twilight 6:46 AM PDT 7:00 PM PDT
Nautical Twilight 6:16 AM PDT 7:30 PM PDT
Astronomical Twilight 5:46 AM PDT 7:59 PM PDT
Moon 4:05 AM PDT (10/12) 4:43 PM PDT (10/12)
Length of Visible Light 12h 13m
Length of Day
11h 21m
Waning Crescent, 10% of the Moon is Illuminated
Oct 12
Waning Crescent
Oct 15
New
Oct 21
First Quarter
Oct 29
Full
Nov 6
Last Quarter

Hourly Weather History & Observations

Time (PDT) Temp. Dew Point Humidity Pressure Visibility Wind Dir Wind Speed Gust Speed Precip Events Conditions
12:11 AM 55.4 °F 53.6 °F 94% 29.99 in 10.0 mi Calm Calm - N/A   Overcast
12:38 AM 55.4 °F 53.6 °F 94% 29.99 in 10.0 mi Calm Calm - N/A   Overcast
12:54 AM 55.9 °F 53.1 °F 90% 30.02 in 10.0 mi Calm Calm - N/A   Overcast
1:54 AM 55.9 °F 53.1 °F 90% 30.02 in 10.0 mi Calm Calm - N/A   Overcast
2:54 AM 55.9 °F 53.1 °F 90% 30.03 in 10.0 mi Calm Calm - N/A   Overcast
3:54 AM 55.9 °F 53.1 °F 90% 30.03 in 10.0 mi Calm Calm - N/A   Overcast
4:54 AM 55.0 °F 52.0 °F 89% 30.04 in 10.0 mi Calm Calm - N/A   Mostly Cloudy
5:54 AM 55.0 °F 52.0 °F 89% 30.07 in 10.0 mi Calm Calm - N/A   Overcast
7:54 AM 55.9 °F 52.0 °F 87% 30.09 in 10.0 mi Calm Calm - N/A   Overcast
9:54 AM 59.0 °F 51.1 °F 75% 30.15 in 10.0 mi Calm Calm - N/A   Overcast
10:54 AM 60.1 °F 52.0 °F 75% 30.16 in 10.0 mi SSW 5.8 mph - N/A   Overcast
11:54 AM 62.1 °F 53.1 °F 72% 30.17 in 10.0 mi SW 4.6 mph - N/A   Mostly Cloudy
12:54 PM 64.9 °F 51.1 °F 61% 30.18 in 10.0 mi SW 10.4 mph - N/A   Mostly Cloudy
1:54 PM 64.9 °F 51.1 °F 61% 30.19 in 10.0 mi SW 10.4 mph 16.1 mph N/A   Overcast
3:54 PM 64.0 °F 52.0 °F 65% 30.19 in 10.0 mi WSW 10.4 mph - N/A   Overcast
4:54 PM 63.0 °F 51.1 °F 65% 30.20 in 10.0 mi SW 6.9 mph - N/A   Overcast
5:54 PM 63.0 °F 51.1 °F 65% 30.21 in 10.0 mi SW 4.6 mph - N/A   Mostly Cloudy
7:54 PM 57.9 °F 52.0 °F 81% 30.24 in 10.0 mi SE 4.6 mph - N/A   Clear
8:54 PM 55.0 °F 51.1 °F 86% 30.25 in 10.0 mi Calm Calm - N/A   Clear
9:54 PM 54.0 °F 50.0 °F 86% 30.25 in 10.0 mi ESE 3.5 mph - N/A   Clear
10:54 PM 53.1 °F 50.0 °F 89% 30.27 in 10.0 mi Calm Calm - N/A   Clear
11:54 PM 52.0 °F 48.9 °F 89% 30.26 in 10.0 mi Calm Calm - N/A   Clear